Flag for Germany Weather past 2 weeks in Varel, Lower Saxony, Germany

Now
45 °F

Quite cool.


Feels Like: 41 °F
Forecast: 41 / 49 °F
Wind: 6 mph from Northeast

Location: Wittmundhaven

Current Time: Apr 26, 2015 at 9:57:16 PM

Latest Report: Apr 26, 2015 at 9:20 PM


Visibility: N/A

Pressure: 29.74 "Hg

Humidity: 81%

Dew point: 39 °F

Location of VarelLocation

Historic Weather in Varel — Graph

°F

Varel temperature yesterday

Maximum temperature yesterday: 55 °F (at 3:20 PM)
Minimum temperature yesterday: 50 °F (at 12:20 AM)
Average temperature yesterday: 52 °F

Past Weeks' High & Low Weather Summary

 TemperatureHumidityPressure
High66 °F (Apr 24, 4:20 PM)100% (Apr 18, 4:20 AM)30.48 "Hg (Apr 18, 4:20 AM)
Low34 °F (Apr 20, 5:20 AM)40% (Apr 24, 4:20 PM)29.68 "Hg (Apr 25, 6:20 AM)
Average47 °F78%30.13 "Hg
* Reported Apr 11 8:20 PM — Apr 26 8:20 PM, Varel, Weather by CustomWeather, © 2015

Note: Actual official high and low records may vary slightly from our data, if they occured in-between our weather recording intervals... More about our weather records

Advertising

Varel weather history for previous 24 hours

 ConditionsComfort  
Time TempWeatherWind HumidityBarometerVisibility
8:20 PM
Sun, Apr 26
45 °FQuite cool.6 mph81%29.74 "HgN/A
7:20 PM45 °FQuite cool.10 mph76%29.74 "HgN/A
6:20 PM46 °FPartly sunny.9 mph76%29.74 "HgN/A
5:20 PM46 °FPartly sunny.12 mph82%29.74 "HgN/A
4:54 PM46 °FPartly sunny.10 mph82%29.74 "HgN/A
4:20 PM46 °FPartly sunny.12 mph82%29.74 "HgN/A
3:20 PM45 °FPartly sunny.9 mph87%29.74 "HgN/A
2:20 PM43 °FPartly sunny.15 mph93%29.74 "HgN/A
1:20 PM43 °FDrizzle. Fog.10 mph100%29.74 "Hg2 mi
12:20 PM43 °FDrizzle. Fog.14 mph93%29.74 "Hg2 mi
11:20 AM46 °FFog.12 mph93%29.71 "Hg2 mi
10:20 AM46 °FFog.12 mph93%29.71 "Hg2 mi
9:20 AM48 °FFog.7 mph94%29.71 "Hg2 mi
8:20 AM50 °FFog.5 mph94%29.68 "Hg2 mi
7:20 AM50 °FFog.3 mph94%29.68 "Hg2 mi
6:20 AM48 °FFog.5 mph94%29.68 "Hg2 mi
5:20 AM48 °FFog.3 mph94%29.68 "Hg2 mi
4:20 AM48 °FFog.3 mph94%29.68 "Hg1 mi
4:02 AM46 °FFog.5 mph100%29.68 "Hg1 mi
3:20 AM48 °FFog.5 mph94%29.68 "Hg0 mi
3:02 AM46 °FFog.5 mph100%29.68 "Hg1 mi
2:48 AM46 °FFog.5 mph100%29.68 "Hg2 mi
2:20 AM48 °FFog.5 mph94%29.71 "Hg3 mi
1:20 AM48 °FPassing clouds.6 mph94%29.71 "HgN/A
12:20 AM48 °FPassing clouds.5 mph100%29.71 "HgN/A
11:20 PM
Sat, Apr 25
50 °FPassing clouds.6 mph94%29.71 "HgN/A
10:20 PM52 °FPassing clouds.9 mph94%29.71 "HgN/A
9:20 PM54 °FDrizzle. Fog.7 mph88%29.68 "Hg3 mi
Weather by CustomWeather, © 2015

See weather overviewHow to use our weather pages